Home   Weather   Merida   Past weeks

Flag for Mexico Past Weather in Merida, Yucatán, Mexico — Yesterday and Last 2 Weeks

81 °F

Partly cloudy.

Feels Like: 85 °F
Forecast: 72 / 86 °F
Wind: 8 mph from Northeast

Location: Aerop. Internacional Merida - Yuc

Current Time: Oct 20, 2016 at 7:39:44 PM

Latest Report: Oct 20, 2016 at 6:49 PM

Visibility: 7 mi

Pressure: 29.85 "Hg

Humidity: 79%

Dew Point: 73 °F

Location of MeridaLocation

Past Weather in Merida — Graph


Merida Temperature Yesterday

Maximum temperature yesterday: 93 °F (at 2:45 PM)
Minimum temperature yesterday: 75 °F (at 4:49 AM)
Average temperature yesterday: 81 °F

High & Low Weather Summary for the Past Weeks

High93 °F (Oct 6, 1:45 PM)100% (Oct 6, 4:49 AM)30.08 "Hg (Oct 6, 4:49 AM)
Low72 °F (Oct 6, 4:49 AM)47% (Oct 7, 1:45 PM)29.77 "Hg (Oct 6, 4:48 PM)
Average81 °F79%29.92 "Hg
* Reported Oct 5 5:45 PM — Oct 20 5:46 PM, Merida, Weather by CustomWeather, © 2016

Note: Actual official high and low records may vary slightly from our data, if they occured in-between our weather recording intervals... More about our weather records


Merida Weather History for the Previous 24 Hours

Scroll right to see more
Time TempWeatherWind HumidityBarometerVisibility
5:46 PM
Thu, Oct 20
84 °FBroken clouds.7 mph70%29.84 "Hg7 mi
4:51 PM84 °FBroken clouds.13 mph66%29.82 "Hg7 mi
3:46 PM86 °FPartly sunny.16 mph66%29.84 "Hg7 mi
2:45 PM90 °FPartly sunny.9 mph59%29.83 "Hg7 mi
1:44 PM91 °FPartly sunny.8 mph56%29.85 "Hg7 mi
12:41 PM91 °FPartly sunny.8 mph52%29.88 "Hg7 mi
11:45 AM90 °FScattered clouds.7 mph52%29.90 "Hg7 mi
10:44 AM86 °FScattered clouds.7 mph59%29.92 "Hg7 mi
9:44 AM84 °FPassing clouds.No wind70%29.93 "Hg6 mi
8:44 AM81 °FPassing clouds.7 mph84%29.91 "Hg6 mi
7:44 AM73 °FPassing clouds.No wind94%29.90 "Hg6 mi
6:48 AM72 °FPassing clouds.No wind94%29.90 "Hg6 mi
5:54 AM72 °FClear.No wind94%29.88 "Hg6 mi
4:50 AM72 °FClear.No wind94%29.86 "Hg7 mi
3:50 AM73 °FClear.No wind94%29.89 "Hg7 mi
2:49 AM73 °FClear.5 mph89%29.87 "Hg7 mi
1:48 AM75 °FClear.5 mph83%29.88 "Hg7 mi
12:49 AM77 °FClear.13 mph83%29.91 "Hg7 mi
11:48 PM
Wed, Oct 19
79 °FClear.12 mph79%29.90 "Hg7 mi
10:50 PM79 °FPassing clouds.6 mph79%29.90 "Hg7 mi
9:49 PM81 °FPassing clouds.9 mph74%29.90 "Hg7 mi
8:52 PM82 °FPassing clouds.7 mph70%29.89 "Hg7 mi
7:47 PM82 °FPassing clouds.5 mph70%29.87 "Hg7 mi
Weather by CustomWeather, © 2016

See weather overviewHow to use our weather pages